Location: Brno
(49.2000°N, 16.6330°E)
Time: 20:25:58
(UTC+02:00)

Vanguard 3 - Pass Details

Date: 01 August 2021
Orbit: 510 x 3260 km, 33.3° (Epoch: 20 September)

Event Time Altitude Azimuth Distance (km) Brightness Sun altitude
Rises 01:47:47 0° 276° (W) 7,227 11.9 -22.0°
Reaches altitude 10° 01:55:40 10° 259° (W) 6,132 11.4 -21.7°
Enters shadow 02:04:51 16° 230° (SW) 5,276 10.8 -21.3°
Maximum altitude 02:05:00 16° 229° (SW) 5,268 - -21.3°
Drops below altitude 10° 02:13:11 10° 198° (SSW) 5,239 - -20.8°
Sets 02:19:03 0° 179° (S) 5,731 - -20.5°
